sat.trackr.live / text

‹ back to catalog

STARLINK-33774

NORAD 63721 · 2025-087AA

PAYLOAD ACTIVE UNKNOWN

§ Identity

Operator
Country
US
Launch date
2025-04-28
Launch site
AFWTR
Launch vehicle
Mass (kg)
RCS (m²)

Purposes: comms

External: N2YO · Heavens-Above · Gunter

§ Orbital elements

Epoch: 2026-09-20T13:15:28.509984Z

Period
94.01 min
Inclination
53.1614°
Eccentricity
0.0002074
Mean motion
15.31720734 rev/d
Perigee alt
469.3 km
Apogee alt
472.1 km
Semi-major
6,848.8 km
B*
5.2669e-4
RAAN
33.0443°
Arg perigee
81.1721°
Mean anomaly
278.9516°
Rev number
7,905

§ Raw data

STARLINK-337741 63721U 25087AA  26263.55241331  .00016024  00000+0  52669-3 0  99972 63721  53.1614  33.0443 0002074  81.1721 278.9516 15.31720734 79053

JSON: /api/v1/satellites/63721 · /tle

For live sub-satellite position, see the globe view (requires WebGL).

§ Visibility from observer

Set your observer location to see the next 7 days of passes ≥ 10°. The values pass through the URL so the page stays shareable.

No JS? Fill the form by hand. The geolocation button needs JavaScript.